Regional Weather Roundup
Issued by NWS

Home | Current Version | Previous Version | Text Only | Print | Product List | Glossary On
Versions: 1 2 3 4 5 6 7 8 9 10 11 12 13 14 15 16 17 18 19 20 21 22 23 24 25 26 27 28 29 30 31 32 33 34 35 36 37 38 39 40 41 42 43 44 45 46 47 48 49 50
401
ASUS45 KBOI 271910
RWRID

IDAHO REGIONAL WEATHER ROUNDUP
NATIONAL WEATHER SERVICE BOISE ID
100 PM MDT WED JUL 27 2016

NOTE: "FAIR" INDICATES FEW OR NO CLOUDS BELOW 12000 FEET
WITH NO SIGNIFICANT WEATHER AND/OR OBSTRUCTIONS TO VISIBILITY

IDZ012-014-272000-
SOUTHWEST IDAHO


CITY           SKY/WX    TMP DP  RH WIND       PRES   REMARKS
BOISE          SUNNY     91  47  21 W8        30.04F
CALDWELL       SUNNY     88  54  31 CALM      30.03F
MOUNTAIN HOME  SUNNY     90  46  22 E7        30.04F
$$

IDZ016-017-272000-
SOUTHCENTRAL IDAHO


CITY           SKY/WX    TMP DP  RH WIND       PRES   REMARKS
BURLEY         SUNNY     84  47  27 VRB3      30.13F
JEROME         SUNNY     89  43  20 NW5       30.13F
TWIN FALLS     SUNNY     87  46  24 N7        30.13F
$$

IDZ019>023-272000-
SOUTHEAST IDAHO


CITY           SKY/WX    TMP DP  RH WIND       PRES   REMARKS
IDAHO FALLS    SUNNY     86  39  19 CALM      30.18F
POCATELLO      SUNNY     87  43  21 NW5       30.17F
REXBURG        SUNNY     85  34  16 VRB3      30.18F
$$

IDZ006-010-011-018-031-032-272000-
CENTRAL IDAHO MOUNTAINS


CITY           SKY/WX    TMP DP  RH WIND       PRES   REMARKS
MCCALL         SUNNY     82  43  25 SE8G17    30.20F
HAILEY         MOSUNNY   82  48  30 SE9       30.24S
STANLEY          N/A     82  33  17 W10       30.30S
SALMON         SUNNY     79  46  31 NW5       30.10F
CHALLIS        SUNNY     84  45  25 MISG      30.16F
$$

IDZ002-004-006-007-026-272000-
NORTHERN IDAHO


CITY           SKY/WX    TMP DP  RH WIND       PRES   REMARKS
LEWISTON       SUNNY     89  51  27 N5        30.02F
LOWELL           N/A     88  54  31 S7        30.00F
COEUR D`ALENE  SUNNY     82  55  39 N6        30.05F
MULLAN PASS    CLOUDY    69  46  43 CALM      30.29S
$$




USA.gov is the U.S. government's official web portal to all federal, state and local government web resources and services.